Wetbulb
39.02 38.23 37.62 36.65 36.09 34.37 34.47 37.28 34.48 37.42 35.74 37.97 38.77 38.32 40.47 40.82 39.11 37.89 37.11 37.19 37.73 37.48 37.76 37.99 36.59 35.73 35.18 34.09 33.04 32.55 31.20 31.09 31.24 31.38 31.08 30.37 28.79 27.49 26.01 25.11 25.22 24.42 23.51 22.40
33.49 36.04 35.15 33.28 36.10 35.34 35.76 37.40 37.46 37.67 36.91 42.63 41.83 41.19 38.39 37.66 36.98 36.30 36.94 37.24 37.82 37.73 36.98 36.38 36.48 36.13 35.44 33.76 32.92 32.43 31.32 30.62 31.60 30.49 28.86 27.44 26.72 24.89 23.74 23.04 22.24 21.62 20.72 19.96
31.79 33.11 30.53 28.80 32.75 34.39 35.38 37.88 37.43 33.03 38.58 37.62 36.57 36.43 38.20 38.20 37.23 36.99 37.51 37.47 36.65 36.70 36.10 36.25 36.43 35.36 34.29 34.23 33.39 30.73 29.87 29.75 28.77 28.62 27.02 26.28 24.83 22.86 21.83 21.21 21.05 19.62 19.20 18.76
31.93 28.50 23.90 32.73 31.57 38.55 36.53 37.57 37.53 35.41 35.42 36.77 38.57 38.33 38.56 38.78 38.50 37.38 36.56 36.37 36.18 36.16 35.88 35.17 34.85 33.36 33.83 32.87 31.06 29.38 29.28 28.82 27.72 27.12 26.20 24.57 21.98 20.82 20.82 20.06 18.96 18.51 18.10 17.40
24.79 26.12 31.78 23.72 27.49 32.59 32.40 34.00 35.67 36.59 35.41 33.10 29.97 32.68 33.38 33.53 35.42 37.04 35.87 35.64 36.04 36.71 35.31 33.07 32.16 31.72 29.54 28.13 28.37 28.18 28.05 27.96 26.97 25.95 24.28 22.04 19.60 19.31 19.32 18.44 17.57 16.96 16.78 16.00
25.28 25.95 24.86 29.89 28.37 31.49 35.03 28.79 31.11 35.69 34.11 28.48 30.19 30.92 36.84 32.48 33.01 33.09 34.03 34.55 32.69 31.75 30.83 31.70 31.18 30.18 27.88 27.75 27.10 26.91 27.23 27.38 26.46 25.02 22.36 20.14 19.36 17.77 18.22 16.98 16.20 15.87 15.44 14.91
26.55 26.36 28.24 32.63 27.54 29.64 25.96 31.49 30.51 34.70 32.32 28.25 30.43 34.95 33.57 32.23 31.87 33.55 33.03 31.40 30.73 30.14 30.29 30.51 29.33 26.66 27.25 26.89 25.66 27.90 26.64 24.61 22.74 21.85 19.60 19.13 17.58 16.80 15.00 14.12 13.56 12.58 11.71 12.88
27.08 25.47 24.32 27.63 26.29 27.95 31.77 27.75 30.05 29.29 29.85 29.21 30.41 29.49 29.49 30.48 30.17 29.48 29.26 29.11 29.71 28.68 28.67 29.36 27.53 26.25 26.35 25.17 27.53 24.53 23.21 21.37 19.47 17.28 17.50 15.59 13.40 13.23 11.40 11.31 10.14 10.70 11.03 12.13
29.36 29.21 26.16 29.40 29.35 30.55 30.43 29.97 27.74 30.38 29.86 30.20 28.83 28.19 29.04 28.39 28.95 28.71 28.89 28.56 28.61 28.03 26.95 27.25 25.84 25.40 25.84 27.19 23.04 20.11 19.00 17.49 15.65 14.12 14.61 13.36 11.36 11.22 11.50 11.18 10.94 12.70 12.41 13.15
26.99 25.24 25.63 27.80 27.68 28.58 29.22 30.14 30.17 30.73 30.32 29.89 29.55 29.10 28.88 28.87 28.39 27.64 27.04 25.80 25.85 25.38 24.74 25.26 24.62 23.41 25.63 22.24 20.12 17.08 16.97 14.95 13.18 11.20 11.90 10.66 12.08 12.27 12.14 12.56 12.31 12.40 12.28 12.17
21.54 23.14 25.44 27.45 27.53 29.40 29.15 29.19 28.77 28.07 29.91 30.33 29.92 28.54 28.98 27.20 26.94 26.85 26.70 25.27 24.49 24.45 25.17 25.91 26.04 23.89 22.96 20.15 17.27 16.86 15.94 14.24 14.31 13.54 11.12 12.69 12.06 13.32 12.54 13.46 13.44 12.31 11.82 12.16
23.44 26.71 27.64 28.19 30.61 29.78 28.75 28.96 28.81 27.92 26.24 26.32 27.55 27.54 26.46 26.17 26.75 26.30 25.66 24.82 22.87 23.34 23.34 24.98 23.06 22.38 18.49 16.84 15.78 16.04 15.23 14.28 15.01 14.25 12.89 12.43 12.31 11.87 14.24 15.40 16.10 17.64 19.04 18.61
27.09 28.77 28.74 29.44 30.10 29.65 29.17 29.58 28.42 27.66 28.03 27.35 26.10 26.86 25.66 25.94 25.05 24.86 23.92 22.84 22.50 23.36 23.07 22.98 20.43 18.26 13.77 12.26 12.85 12.91 16.85 15.25 14.18 11.90 12.25 11.45 10.42 10.16 10.06 11.81 12.69 14.36 15.57 16.17
28.18 26.86 25.36 26.53 27.88 28.14 27.88 28.17 26.91 24.95 25.79 26.19 26.58 24.28 24.83 23.94 20.06 21.82 21.63 22.04 22.02 20.49 17.71 16.35 14.30 13.06 10.41 9.45 9.53 8.36 11.26 8.89 12.54 12.09 11.45 10.92 9.89 9.26 8.14 7.08 6.71 7.90 8.82 9.52
26.08 27.25 28.07 27.04 25.75 25.05 23.91 23.08 22.44 23.08 23.38 21.94 21.08 22.24 20.57 20.27 20.15 20.68 17.06 11.98 11.72 10.21 7.95 8.52 8.38 6.12 5.15 4.65 5.92 6.57 8.23 9.30 8.62 8.80 7.89 7.10 7.10 6.24 5.60 5.13 4.29 3.78 4.55 6.64
26.10 24.62 23.15 23.35 25.26 22.78 22.30 19.97 22.28 23.79 22.40 22.37 19.94 18.66 19.83 17.86 14.48 8.45 5.67 6.26 13.41 14.03 5.05 5.57 5.09 1.52 0.66 1.76 3.24 3.46 3.88 2.07 3.44 5.78 5.43 4.27 4.38 3.60 3.53 3.24 2.58 2.27 2.78 3.54
21.48 20.27 18.25 20.05 22.06 22.84 21.12 23.25 23.71 23.92 21.59 19.40 19.88 16.14 13.24 8.04 4.08 1.40 -1.10 -0.07 3.01 2.47 1.82 3.66 -0.19 -2.93 -2.18 -0.42 1.25 4.37 3.72 3.14 0.80 2.68 2.28 2.64 2.02 1.31 1.77 1.82 1.12 1.25 1.76 3.41
23.77 25.86 25.10 25.69 24.67 23.42 21.36 21.00 20.66 19.32 16.28 15.14 12.78 10.49 7.30 5.66 9.63 0.75 -2.14 -2.95 -2.48 -3.08 -1.48 -2.80 -2.58 -4.24 -5.04 -4.09 -2.22 0.72 0.61 0.62 -0.16 -0.58 0.60 0.46 0.36 0.39 0.22 0.13 0.27 -0.12 0.89 2.20
10.02 13.06 15.46 16.81 13.85 15.37 13.93 13.46 10.78 9.07 8.14 8.09 7.48 4.79 3.24 1.80 0.69 -3.37 -3.56 -1.40 0.44 1.06 -3.63 -3.30 4.12 -3.06 -2.12 -4.47 -4.07 -1.95 -1.60 -1.42 -0.93 -1.41 -1.62 -2.86 -2.83 -2.04 -1.61 -1.46 -1.63 -1.16 -0.83 -0.65
3.80 5.63 5.89 3.99 2.70 3.08 3.84 1.77 2.70 0.49 -0.21 0.29 -1.43 -1.91 -4.04 -6.43 -6.21 -6.03 -2.32 -1.61 -2.94 -2.21 -4.97 -4.79 -4.60 -2.72 -4.87 -6.26 -0.25 -0.55 -0.88 -1.07 -1.24 -1.02 -1.35 -1.65 -1.78 -1.61 -1.07 -2.79 -3.04 -2.04 -1.68 -1.65
-2.69 -0.50 -1.04 -2.08 -4.17 -4.69 -4.20 -2.35 -1.29 -2.61 -3.14 -2.04 -1.21 -5.02 -7.87 -9.57 -8.24 -6.30 -2.08 0.25 -5.31 -7.72 -6.03 -5.73 -4.25 -1.82 -1.97 -3.01 -3.12 -1.74 -1.86 -1.93 -2.38 -2.52 -2.93 -2.96 -2.98 -2.75 -2.58 -2.16 -1.95 -1.45 -1.43 -1.13
-6.95 -5.51 -5.05 -5.81 -6.69 -8.66 -9.31 -6.37 -5.44 -5.54 -5.44 -6.90 -8.89 -9.75 -10.04 -9.68 -9.17 -7.48 -9.06 -2.00 -3.57 -7.19 -4.15 -2.05 -1.89 -5.02 -2.36 -4.84 -0.60 -1.30 -2.32 -3.10 -3.00 -2.91 -3.22 -2.83 -2.65 -2.76 -2.44 -1.90 -1.89 -1.05 -0.48 -0.60
-10.12 -8.25 -7.59 -8.80 -9.49 -10.84 -9.85 -9.04 -8.55 -6.70 -7.38 -7.33 -6.32 -4.36 -2.40 -2.07 -1.09 -0.15 -1.92 -5.61 -4.08 -5.39 -2.17 -1.24 -3.72 -1.86 1.50 1.29 1.16 -0.00 -1.06 -2.04 -2.08 -1.81 -1.87 -1.79 -1.77 -2.01 -2.14 -2.00 -1.33 -1.09 -1.41 -1.61
-11.75 -11.02 -11.34 -11.51 -10.70 -7.17 -8.50 -9.78 -8.46 -8.65 -8.81 -7.67 -8.26 -6.54 -2.59 -3.39 -4.55 -5.22 -4.72 -7.03 -9.24 -6.08 -2.77 -1.47 0.04 4.48 -0.87 0.09 -0.77 -1.14 -1.55 -1.49 -1.88 -1.80 -1.75 -3.11 -1.84 -1.73 -1.99 -2.05 -2.38 -1.83 -2.30 -3.43
-11.14 -10.22 -9.27 -8.22 -7.61 -8.66 -9.36 -8.71 -8.23 -8.33 -8.45 -8.29 -8.84 -8.98 -8.24 -7.28 -3.00 -4.64 -5.57 -4.53 -5.54 -3.53 -1.92 -3.03 1.43 1.45 -1.38 -1.82 -2.47 -2.61 -2.39 -2.16 -2.12 -2.51 -2.53 -2.50 -2.57 -2.67 -2.54 -2.58 -3.34 -4.06 -4.61 -5.20
-8.26 -9.40 -9.95 -10.80 -9.07 -7.43 -7.42 -5.95 -7.09 -8.28 -6.05 -6.91 -7.79 -8.03 -7.39 -8.06 -6.29 -5.22 -5.02 -6.59 -4.89 -5.25 -3.17 -2.80 -3.17 -3.07 -2.62 -2.47 -2.58 -2.68 -2.53 -2.18 -2.44 -2.46 -3.10 -3.18 -3.30 -4.00 -4.39 -4.60 -4.74 -4.88 -5.61 -6.56
-7.39 -6.49 -5.89 -6.55 -7.20 -6.86 -6.54 -6.35 -4.83 -6.66 -8.06 -7.36 -6.12 -7.92 -8.58 -7.95 -7.10 -6.63 -7.61 -4.52 -4.49 -4.70 -4.48 -4.33 -3.86 -3.65 -3.01 -2.79 -2.62 -2.54 -2.77 -3.02 -3.86 -3.87 -4.25 -4.68 -5.03 -5.10 -5.18 -5.11 -5.38 -6.15 -6.75 -7.54
MSLP
1010.98 1011.41 1011.84 1011.63 1011.66 1012.41 1011.85 1010.48 1010.94 1010.25 1011.19 1012.35 1013.34 1014.00 1014.48 1015.25 1016.52 1017.75 1018.35 1019.21 1019.82 1020.42 1021.44 1022.29 1023.17 1023.93 1024.54 1025.10 1025.97 1026.81 1027.30 1027.70 1027.95 1028.65 1029.12 1029.52 1030.17 1030.90 1031.60 1032.06 1032.04 1032.29 1032.34 1032.57
1011.56 1011.84 1012.05 1011.88 1011.21 1010.75 1010.61 1010.47 1010.23 1010.76 1010.23 1011.53 1012.42 1013.63 1014.59 1015.19 1016.26 1017.10 1017.58 1018.26 1019.03 1019.85 1021.12 1021.59 1022.27 1022.92 1023.66 1024.55 1025.36 1026.21 1026.58 1027.13 1027.61 1028.32 1029.09 1029.69 1030.57 1031.36 1031.51 1031.72 1032.19 1032.41 1032.55 1032.53
1011.18 1012.17 1012.78 1012.18 1009.18 1010.10 1009.94 1009.77 1009.99 1010.35 1009.89 1011.77 1013.04 1013.74 1014.20 1014.72 1015.64 1016.36 1017.02 1017.75 1018.45 1019.36 1020.12 1020.77 1021.46 1022.25 1023.07 1023.85 1024.72 1025.44 1026.16 1026.95 1027.64 1028.29 1028.89 1029.62 1030.39 1031.08 1031.76 1031.75 1031.92 1032.08 1032.30 1032.36
1011.79 1012.84 1011.71 1008.64 1009.56 1008.99 1009.28 1009.66 1010.12 1010.56 1011.16 1012.03 1012.72 1013.54 1014.21 1014.81 1015.56 1016.39 1017.11 1017.72 1018.37 1019.15 1019.81 1020.68 1021.41 1022.20 1022.91 1023.58 1024.32 1025.17 1025.73 1026.58 1027.27 1027.92 1028.53 1029.34 1030.32 1030.71 1031.28 1031.56 1031.66 1031.86 1032.02 1032.09
1012.30 1011.74 1010.45 1010.82 1010.42 1009.98 1009.92 1009.43 1010.42 1011.00 1012.07 1013.01 1013.78 1014.28 1014.70 1015.28 1015.81 1016.32 1016.93 1017.62 1018.36 1019.00 1019.94 1020.67 1021.28 1021.93 1022.66 1023.65 1024.20 1024.75 1025.27 1025.82 1026.59 1027.29 1028.14 1028.94 1029.80 1030.42 1030.97 1031.24 1031.38 1031.64 1031.76 1031.88
1011.83 1011.18 1010.32 1009.50 1010.07 1010.13 1010.12 1010.34 1010.42 1011.21 1012.58 1013.74 1014.43 1014.62 1014.30 1015.22 1015.85 1016.66 1017.34 1018.19 1018.74 1019.39 1019.98 1020.43 1021.10 1021.65 1022.40 1023.19 1023.84 1024.34 1024.71 1025.12 1025.98 1026.71 1027.55 1028.42 1029.28 1030.05 1030.56 1030.89 1031.03 1031.34 1031.41 1031.52
1011.21 1010.83 1010.52 1010.16 1010.52 1010.77 1011.15 1011.01 1011.04 1011.89 1013.04 1014.01 1014.25 1013.87 1014.27 1015.09 1016.16 1016.78 1017.42 1018.19 1018.87 1019.46 1019.80 1020.27 1020.99 1021.62 1022.36 1023.01 1023.40 1023.45 1024.30 1024.97 1025.76 1026.58 1027.24 1028.04 1028.97 1029.77 1030.38 1030.63 1030.82 1031.06 1031.08 1030.98
1011.28 1011.12 1010.72 1010.43 1011.50 1011.21 1011.20 1011.54 1011.85 1012.53 1013.04 1013.64 1013.92 1014.31 1014.83 1015.39 1016.14 1016.98 1017.68 1018.35 1018.91 1019.52 1019.89 1020.37 1020.95 1021.61 1022.29 1022.80 1022.49 1023.51 1024.23 1024.91 1025.66 1026.40 1027.16 1028.04 1028.80 1029.54 1030.04 1030.35 1030.53 1030.48 1030.43 1030.19
1010.84 1010.65 1010.64 1010.93 1011.13 1011.21 1011.44 1011.77 1012.44 1012.52 1012.81 1013.43 1014.13 1014.68 1015.13 1015.80 1016.47 1017.16 1017.74 1018.28 1018.75 1019.21 1019.70 1020.32 1020.92 1021.52 1022.16 1022.05 1022.79 1023.59 1024.40 1024.90 1025.79 1026.61 1027.25 1027.93 1028.59 1029.05 1029.37 1029.66 1029.60 1029.36 1029.29 1029.01
1010.88 1011.04 1011.09 1011.37 1011.88 1012.01 1012.15 1012.03 1012.25 1012.49 1012.91 1013.66 1014.02 1014.54 1015.17 1015.81 1016.54 1017.21 1017.68 1018.20 1018.70 1019.34 1019.88 1020.32 1020.68 1021.22 1021.50 1022.16 1022.64 1023.49 1024.03 1024.87 1025.81 1026.47 1027.04 1027.68 1028.05 1028.24 1028.36 1028.34 1028.36 1028.37 1028.33 1028.10
1011.18 1011.37 1011.58 1011.88 1012.17 1012.25 1012.46 1012.61 1012.80 1013.06 1013.28 1013.50 1014.09 1014.67 1015.13 1015.85 1016.48 1016.98 1017.46 1018.03 1018.56 1018.82 1019.37 1019.74 1020.18 1020.72 1021.33 1021.89 1022.48 1023.22 1023.89 1024.64 1025.30 1025.86 1026.54 1026.89 1027.26 1027.31 1027.49 1027.46 1027.51 1027.39 1027.34 1027.27
1009.84 1010.09 1010.47 1010.79 1010.97 1011.67 1012.36 1012.61 1012.88 1013.22 1013.80 1014.09 1014.35 1014.81 1015.38 1015.94 1016.23 1016.71 1017.33 1017.73 1018.39 1018.76 1019.24 1019.35 1019.93 1020.45 1021.05 1021.60 1022.18 1022.71 1023.59 1024.24 1024.64 1025.19 1025.85 1026.25 1026.51 1026.80 1027.01 1026.99 1027.00 1026.75 1026.31 1025.89
1009.38 1009.72 1010.03 1010.26 1010.59 1011.29 1012.02 1012.42 1012.88 1013.31 1013.64 1014.11 1014.41 1014.72 1015.27 1015.63 1016.15 1016.59 1017.22 1017.71 1017.98 1018.08 1018.67 1019.37 1019.80 1020.39 1021.20 1021.90 1022.31 1022.71 1023.24 1023.84 1024.36 1024.91 1025.30 1025.64 1026.02 1026.24 1026.24 1026.41 1026.67 1026.49 1026.23 1025.86
1009.42 1010.10 1010.74 1010.73 1010.82 1011.27 1011.94 1012.32 1012.81 1013.21 1013.75 1014.11 1014.28 1014.69 1015.19 1015.64 1016.34 1016.94 1017.17 1017.35 1017.97 1018.53 1019.19 1019.72 1020.22 1020.88 1021.72 1022.24 1022.71 1023.24 1023.52 1023.99 1024.17 1024.58 1024.98 1025.39 1025.71 1025.79 1025.85 1025.95 1026.06 1026.08 1026.48 1026.52
1009.80 1009.89 1010.11 1010.39 1011.08 1011.93 1012.60 1013.03 1013.24 1013.46 1013.73 1014.19 1014.46 1014.82 1015.45 1016.16 1016.75 1017.10 1017.67 1018.35 1018.92 1019.59 1020.19 1020.73 1021.34 1022.06 1022.49 1023.01 1023.30 1023.68 1023.98 1024.23 1024.67 1024.98 1025.38 1025.66 1025.78 1026.04 1025.98 1025.81 1025.79 1025.92 1026.07 1026.08
1010.15 1010.73 1011.29 1011.63 1011.96 1012.65 1013.17 1013.50 1013.64 1013.52 1013.82 1014.09 1014.65 1015.19 1015.59 1016.40 1017.23 1018.08 1019.14 1019.54 1019.80 1020.41 1021.12 1021.49 1022.13 1022.97 1023.38 1023.74 1024.15 1024.43 1024.72 1025.05 1025.21 1025.29 1025.44 1025.72 1025.81 1025.87 1025.98 1025.88 1025.77 1025.58 1025.42 1025.44
1011.88 1012.19 1012.30 1012.32 1012.54 1012.83 1013.18 1013.16 1013.39 1013.60 1013.87 1014.31 1014.73 1015.46 1016.24 1017.24 1018.32 1019.33 1020.31 1020.74 1020.91 1021.40 1022.05 1022.51 1023.14 1023.58 1023.89 1024.13 1024.43 1024.65 1025.00 1025.26 1025.53 1025.52 1025.57 1025.52 1025.65 1025.69 1025.73 1025.66 1025.55 1025.36 1025.07 1025.00
1012.65 1012.22 1012.26 1012.31 1012.67 1013.04 1013.32 1013.50 1013.62 1013.88 1014.57 1015.00 1015.61 1016.38 1017.27 1018.23 1018.88 1020.40 1021.37 1022.03 1022.33 1022.87 1023.36 1023.74 1023.96 1024.20 1024.50 1024.73 1024.96 1025.13 1025.26 1025.36 1025.52 1025.50 1025.45 1025.47 1025.50 1025.44 1025.39 1025.21 1024.92 1024.75 1024.52 1024.38
1014.79 1014.18 1013.79 1013.73 1013.93 1014.13 1014.53 1014.75 1015.10 1015.41 1015.92 1016.34 1016.89 1017.78 1018.51 1019.35 1020.23 1021.31 1022.02 1022.30 1022.85 1023.50 1024.24 1024.26 1024.07 1024.55 1024.67 1024.98 1025.19 1025.21 1025.26 1025.27 1025.32 1025.41 1025.40 1025.37 1025.41 1025.31 1025.10 1024.89 1024.61 1024.45 1024.30 1024.06
1016.74 1016.19 1015.87 1015.99 1016.07 1016.25 1016.59 1016.80 1016.84 1017.22 1017.70 1017.96 1018.56 1019.39 1020.32 1021.08 1021.61 1022.00 1022.26 1022.90 1023.56 1023.89 1024.34 1024.62 1024.72 1024.72 1024.84 1025.00 1025.01 1025.08 1025.05 1024.96 1024.95 1024.97 1024.94 1024.90 1024.89 1024.82 1024.66 1024.45 1024.22 1023.95 1023.80 1023.67
1018.97 1018.41 1017.97 1017.97 1018.38 1018.32 1018.26 1018.36 1018.54 1018.96 1019.33 1019.52 1019.99 1021.00 1021.82 1022.61 1022.83 1023.00 1023.23 1023.53 1024.42 1024.60 1024.40 1024.42 1024.56 1024.79 1024.88 1024.97 1025.04 1024.99 1024.87 1024.69 1024.64 1024.62 1024.61 1024.60 1024.58 1024.40 1024.15 1023.87 1023.64 1023.43 1023.20 1023.08
1020.87 1020.40 1020.10 1020.00 1020.20 1020.48 1020.46 1020.32 1020.17 1020.35 1020.52 1020.93 1021.62 1022.16 1022.69 1023.27 1023.58 1023.77 1024.05 1024.08 1024.40 1024.70 1024.52 1024.36 1024.51 1024.68 1024.68 1024.68 1024.69 1024.72 1024.72 1024.51 1024.41 1024.42 1024.41 1024.27 1024.10 1023.87 1023.60 1023.35 1023.07 1022.81 1022.60 1022.51
1022.16 1021.87 1021.89 1021.76 1021.74 1021.94 1021.98 1021.87 1021.97 1021.86 1021.84 1022.17 1022.47 1022.78 1023.06 1023.27 1023.48 1023.62 1024.10 1024.57 1024.55 1024.55 1024.38 1024.32 1024.35 1024.31 1024.20 1024.11 1024.28 1024.50 1024.46 1024.24 1024.04 1023.95 1023.83 1023.67 1023.44 1023.27 1023.04 1022.76 1022.51 1022.34 1022.20 1022.11
1023.18 1022.91 1023.32 1023.55 1023.05 1022.86 1022.98 1023.43 1023.26 1023.32 1023.35 1023.45 1023.53 1023.58 1023.53 1023.57 1023.94 1024.22 1024.41 1024.53 1024.43 1024.29 1024.25 1024.26 1024.14 1024.00 1023.93 1024.04 1024.22 1024.26 1024.11 1023.88 1023.70 1023.45 1023.20 1023.05 1022.87 1022.75 1022.54 1022.29 1022.07 1021.89 1021.77 1021.73
1023.86 1023.69 1023.78 1024.16 1023.88 1023.96 1024.14 1024.28 1024.11 1024.21 1024.27 1024.27 1024.39 1024.47 1024.30 1024.29 1024.02 1024.48 1024.54 1024.46 1024.31 1024.21 1024.11 1024.06 1024.04 1024.07 1024.12 1024.12 1024.11 1023.95 1023.68 1023.47 1023.19 1022.92 1022.72 1022.54 1022.40 1022.24 1022.03 1021.82 1021.62 1021.44 1021.28 1021.15
1024.57 1024.54 1024.55 1024.96 1024.81 1024.51 1024.41 1024.37 1024.58 1024.89 1024.77 1024.74 1024.94 1024.95 1024.88 1024.85 1024.71 1024.59 1024.49 1024.41 1024.26 1024.13 1024.06 1024.03 1024.04 1024.06 1024.00 1023.89 1023.70 1023.45 1023.20 1022.96 1022.61 1022.39 1022.32 1022.12 1021.92 1021.76 1021.56 1021.33 1021.08 1020.86 1020.69 1020.52
1024.75 1024.63 1024.83 1024.90 1024.86 1024.88 1024.92 1024.91 1025.02 1025.24 1025.27 1025.20 1025.08 1025.20 1025.17 1025.07 1024.89 1024.68 1024.52 1024.30 1024.23 1024.15 1023.99 1023.90 1023.84 1023.75 1023.67 1023.45 1023.17 1022.95 1022.73 1022.39 1022.11 1021.95 1021.74 1021.58 1021.41 1021.22 1020.98 1020.73 1020.51 1020.31 1020.09 1019.88
Wind_Speed
22 11 9 10 20 22 25 27 17 16 20 16 16 16 15 15 12 15 17 16 17 15 14 14 14 14 14 13 14 14 13 13 13 11 9 9 8 7 5 5 5 4 4 4
16 13 12 9 18 25 26 24 23 15 18 8 13 8 9 12 14 16 15 15 15 13 13 15 14 14 13 13 15 14 14 14 12 10 9 8 8 7 6 6 5 5 5 5
16 9 5 11 23 21 17 17 19 20 16 7 8 12 13 14 16 15 14 14 13 13 12 11 12 11 14 14 12 12 11 8 8 9 9 9 9 8 7 7 5 5 6 5
6 6 13 7 0 18 21 17 16 3 4 10 7 6 5 7 11 10 9 9 10 9 9 8 8 9 8 7 9 10 10 8 9 9 9 10 9 9 7 6 6 5 6 6
7 11 4 2 4 9 15 15 10 18 6 5 6 4 4 6 7 9 11 8 8 8 8 8 9 8 7 8 8 9 10 11 10 11 10 10 9 9 7 6 6 6 6 6
5 7 12 2 5 4 5 6 9 12 8 10 10 7 8 12 8 7 7 7 8 8 6 7 8 9 8 8 8 10 10 10 9 10 10 10 9 8 6 5 6 5 6 7
6 6 5 4 5 2 7 3 4 8 8 13 8 3 5 11 9 7 7 8 6 8 8 8 8 7 7 7 10 9 6 7 8 9 9 9 8 6 6 6 5 5 7 7
4 5 10 6 6 9 3 3 5 6 9 11 5 8 8 10 8 8 7 7 7 7 7 7 7 7 7 9 7 6 7 8 9 9 8 7 7 6 5 5 6 7 7 7
6 2 2 9 3 2 2 6 6 7 7 10 10 10 11 8 8 8 9 8 6 8 8 6 7 8 8 8 7 7 8 8 8 8 7 7 7 7 6 7 6 6 6 6
3 3 2 9 2 1 3 4 6 3 7 11 12 10 11 8 7 7 6 7 6 6 6 8 8 9 11 6 8 8 8 8 8 9 9 7 6 6 7 7 7 6 6 6
2 1 3 3 7 5 5 2 4 3 7 12 8 10 8 7 7 7 7 5 6 9 10 13 8 10 8 7 9 9 8 8 9 8 9 8 8 7 7 8 8 6 6 5
4 9 5 6 11 12 8 10 8 7 4 4 7 8 7 8 8 6 7 5 6 8 8 11 7 7 6 8 10 10 9 8 8 7 7 6 6 6 13 14 13 16 16 12
4 8 6 2 2 5 11 9 8 10 7 8 9 9 7 6 6 7 6 6 8 11 9 5 5 5 5 6 7 7 8 7 6 6 6 6 6 6 6 6 10 12 14 13
5 7 0 2 5 8 7 5 6 3 4 7 6 5 6 6 3 7 8 5 2 3 3 3 3 3 4 6 6 5 5 3 5 5 5 6 6 6 5 5 6 5 6 8
7 7 3 2 2 2 2 4 3 6 5 6 5 6 6 7 8 6 3 3 4 3 3 2 3 4 4 4 5 5 4 3 3 3 4 4 4 5 5 6 6 5 5 6
5 1 4 2 3 3 4 3 6 8 6 6 6 7 6 2 4 6 5 3 3 3 4 5 6 3 3 3 3 2 2 2 3 3 4 5 5 5 6 6 6 6 5 6
5 2 1 6 7 7 11 8 10 7 4 5 5 4 6 6 6 6 4 3 5 7 5 4 5 3 3 3 3 1 2 2 3 3 4 4 4 6 6 6 6 7 7 6
6 4 5 5 5 6 5 7 7 4 2 1 4 5 6 6 5 7 6 5 7 7 5 4 3 3 2 2 2 2 2 2 3 4 4 5 5 6 6 7 7 8 7 7
6 7 7 4 5 2 2 2 2 3 3 4 6 6 6 6 8 8 7 6 6 6 3 2 4 3 3 3 3 2 2 3 3 3 4 4 5 6 6 7 7 7 7 6
8 6 7 6 7 6 4 4 6 6 5 7 9 8 9 6 6 7 5 6 4 4 3 2 2 2 2 0 3 2 3 3 3 3 4 4 5 6 7 7 8 7 6 6
7 6 7 8 7 8 7 5 6 7 6 6 8 8 8 6 5 4 6 5 3 2 3 3 2 1 1 2 3 2 1 2 2 3 4 5 6 7 7 7 7 7 7 7
6 5 6 7 7 8 7 6 7 7 8 9 9 8 8 7 5 5 3 3 3 1 1 2 1 2 2 2 1 2 2 3 3 3 5 5 6 7 7 7 8 7 7 7
5 5 5 6 7 6 6 8 7 7 8 7 7 6 6 4 3 3 3 2 1 1 0 0 2 3 3 2 2 4 5 5 5 5 6 6 7 7 7 7 7 7 7 7
4 6 5 3 2 5 9 5 6 6 5 6 6 4 4 4 4 3 3 1 1 2 2 3 4 5 3 1 2 4 4 5 5 6 6 7 7 7 7 7 7 7 7 8
4 4 4 3 6 6 5 4 5 5 5 6 5 4 4 3 2 2 0 1 3 2 2 3 5 5 3 3 4 5 5 5 5 5 6 6 7 7 7 7 8 8 7 7
5 5 5 5 4 3 3 2 3 2 2 3 2 2 2 2 1 0 0 1 2 2 2 3 3 3 4 5 5 6 6 6 6 6 7 7 7 7 7 8 8 7 7 7
4 3 3 4 4 4 3 3 2 2 2 2 2 1 2 1 2 2 2 2 2 2 2 2 3 4 4 5 6 6 6 6 6 6 6 7 7 7 7 7 7 7 7 7
Wind_Direction
236 242 203 208 194 194 208 220 213 230 224 194 194 201 204 207 185 190 198 195 199 201 202 198 199 202 204 202 197 192 192 194 199 193 184 175 172 173 173 197 213 218 220 242
242 228 215 228 211 202 211 219 234 243 245 184 202 188 192 189 185 200 200 200 201 199 197 200 203 206 204 204 201 194 197 203 200 188 176 177 178 182 185 197 210 213 230 238
231 192 159 248 210 198 205 213 212 218 230 135 177 195 202 192 193 202 196 195 190 197 198 200 205 202 205 205 193 188 192 192 178 177 178 183 182 183 201 210 213 224 237 240
225 133 218 265 65 206 209 212 217 251 151 168 183 184 175 176 191 197 195 190 193 188 186 189 187 192 200 191 180 182 192 191 188 184 185 180 186 194 203 209 218 227 236 244
182 209 331 345 203 165 178 228 198 216 166 133 103 107 193 190 197 194 190 186 186 177 173 169 174 171 157 167 178 184 199 202 193 187 186 184 192 196 203 213 221 230 233 242
151 207 219 195 173 170 143 243 196 188 152 150 146 196 218 178 179 178 169 176 171 163 157 164 163 156 159 175 181 204 204 203 189 183 182 183 188 192 198 214 229 231 243 250
183 221 271 202 161 191 161 228 121 172 146 153 189 217 134 153 165 176 182 179 154 165 180 184 158 151 181 170 204 210 163 163 173 182 177 177 175 184 192 213 240 239 253 254
156 209 248 141 93 176 161 15 137 157 169 179 152 147 150 159 165 176 184 175 181 179 199 183 164 168 190 203 200 160 168 172 173 165 168 169 172 179 197 215 235 245 251 264
207 197 42 181 52 158 124 151 196 175 174 167 160 175 167 172 174 183 191 194 184 191 192 183 179 192 200 220 161 161 166 170 162 159 168 167 179 193 206 213 234 246 245 257
167 160 170 186 38 322 204 204 168 192 160 166 182 176 177 166 176 187 193 200 184 178 203 215 202 200 222 164 158 163 172 167 164 173 180 186 198 205 212 216 225 234 240 252
75 356 13 262 225 221 216 210 153 144 178 193 172 178 174 177 193 204 205 193 179 194 212 228 201 207 200 176 161 176 174 176 182 190 193 197 214 215 223 229 229 230 231 240
186 179 163 201 213 198 201 211 201 177 181 197 185 191 183 198 202 199 212 196 196 211 214 231 198 209 184 172 174 171 185 187 190 189 192 207 217 232 237 242 240 246 257 259
159 169 188 113 170 159 211 216 194 205 209 189 213 205 190 205 193 204 209 199 207 212 219 214 207 208 162 168 168 177 189 182 184 199 201 205 213 227 244 219 254 261 267 271
136 115 180 188 203 186 203 208 163 176 202 213 209 190 212 218 151 206 211 212 216 217 222 222 183 171 158 160 164 157 181 163 192 200 210 216 225 230 230 235 250 257 253 270
174 211 174 117 118 134 95 130 174 219 218 226 207 214 187 211 220 210 123 117 101 100 89 117 124 114 127 142 156 166 178 193 203 216 227 240 238 243 244 240 238 245 276 274
162 200 57 237 225 188 196 212 227 241 219 233 205 204 209 133 92 94 80 94 152 171 140 125 112 100 118 131 130 145 207 223 214 227 230 234 241 246 254 252 251 247 243 254
130 229 221 256 230 217 210 214 218 234 230 210 221 156 140 119 110 115 108 77 88 99 108 106 112 99 110 128 163 192 212 217 236 241 244 246 251 250 254 255 255 257 256 250
300 292 212 210 202 224 232 227 227 238 215 169 119 118 125 151 149 136 123 113 97 83 62 62 95 113 117 135 200 210 223 237 233 247 259 254 254 256 254 253 251 251 256 254
1 347 344 2 11 333 39 37 39 67 86 112 117 108 103 100 118 123 135 122 121 128 110 61 77 101 108 160 180 188 202 222 232 245 251 263 262 259 261 259 260 260 263 265
4 15 34 44 34 25 80 57 79 78 60 87 102 98 99 91 108 120 124 103 79 95 115 74 47 76 91 230 177 190 205 229 261 277 279 281 277 275 273 262 263 261 257 256
1 17 55 66 59 47 52 64 84 80 72 71 97 99 104 100 83 101 123 117 100 101 116 123 108 99 152 147 184 193 229 261 265 277 285 283 281 274 274 272 269 265 263 258
359 20 54 69 73 68 30 54 75 85 84 86 90 100 108 109 111 83 35 76 132 134 87 87 110 203 244 231 252 271 269 266 272 270 263 262 267 275 277 274 270 267 263 260
31 39 53 55 80 86 61 50 50 73 88 91 104 118 111 109 98 128 123 130 127 114 338 336 309 288 287 251 282 274 269 262 258 260 261 264 271 274 273 274 273 271 269 266
50 59 66 56 81 74 81 49 59 55 68 83 81 77 118 115 85 54 74 107 333 3 346 325 324 322 12 326 275 265 265 265 264 266 271 270 274 273 271 272 271 270 267 266
46 51 47 38 76 77 84 78 85 79 77 72 61 49 52 38 42 124 346 345 335 351 323 326 324 334 300 276 267 266 271 270 270 278 276 274 273 272 273 273 271 270 269 266
60 68 74 56 66 65 67 56 76 53 90 94 74 33 36 13 20 343 290 300 301 317 304 313 302 291 279 275 277 277 279 277 280 279 276 275 275 272 271 270 269 268 268 266
89 97 113 92 57 51 48 46 61 71 39 17 84 54 349 326 318 303 311 313 310 295 279 274 272 274 278 281 283 283 280 279 273 275 277 275 272 270 272 273 274 272 271 268